EHI
0 0 0 0 0 0 0 0 0 0 0 1 2 3 3 4 6 8 12 15 15 14 14 18 21 21 18 15 13 11 8 7 7 7 7 6 4 2 3 3 3 3 3 3
0 0 0 0 0 0 0 0 0 0 0 1 2 2 3 5 7 9 12 13 13 13 14 18 22 24 22 19 16 14 12 9 8 7 7 4 2 2 2 3 3 3 4 4
0 0 0 0 0 0 0 0 0 0 0 0 1 1 3 6 8 9 11 11 12 13 15 18 24 30 30 26 24 22 19 15 11 9 6 4 3 2 2 2 4 5 6 7
0 0 0 0 0 0 0 1 1 1 0 0 0 0 2 7 11 11 11 11 13 15 17 21 27 33 36 34 30 27 24 21 16 11 8 7 7 6 3 2 4 6 8 9
0 0 0 0 0 0 0 1 2 1 0 0 0 0 1 6 12 14 14 14 13 14 17 23 28 32 35 36 33 30 27 24 19 15 12 10 9 8 6 4 4 4 6 7
0 0 0 0 0 0 0 1 1 0 0 0 0 0 1 4 10 15 17 17 13 12 16 21 26 28 31 35 35 33 30 26 22 19 16 13 10 10 9 8 6 5 5 5
0 0 0 0 0 0 0 0 0 0 0 0 0 0 1 2 6 12 16 17 14 13 16 22 26 28 32 38 39 36 32 30 28 24 20 17 15 12 11 11 10 9 8 7
0 0 0 0 0 0 0 0 0 0 0 0 0 1 1 2 3 7 11 15 16 16 19 24 29 30 35 40 42 39 36 35 34 31 26 22 20 16 12 10 11 11 11 11
0 0 0 0 0 0 0 0 0 0 0 0 0 1 2 2 2 4 7 11 16 19 21 26 31 32 33 37 41 42 41 39 37 36 32 26 23 19 13 9 10 10 10 10
0 0 0 0 0 0 0 0 0 0 0 0 0 1 1 2 3 5 7 10 15 19 20 24 30 31 31 33 37 40 41 39 37 36 34 30 24 19 14 11 10 10 9 7
0 0 0 0 0 0 0 0 0 0 0 0 0 0 1 2 4 6 7 10 14 17 18 20 26 29 29 30 33 36 37 37 37 36 34 32 28 22 17 14 13 13 11 8
0 0 0 0 0 0 0 0 0 0 0 0 0 0 1 3 6 6 7 11 16 18 17 18 22 27 28 27 28 32 35 38 40 38 35 35 34 29 23 19 18 18 15 12
0 0 0 0 0 0 0 0 0 0 0 0 0 0 2 5 8 8 9 14 19 22 21 21 22 25 27 27 25 27 32 37 40 40 38 37 36 32 27 24 22 20 18 17
0 0 0 0 0 0 0 0 0 0 0 0 0 0 2 6 9 11 13 20 23 25 26 26 24 24 26 27 25 25 28 32 36 38 38 37 34 30 26 25 23 20 18 17
0 0 0 0 0 0 0 0 0 0 0 0 0 1 3 6 10 14 20 26 27 26 27 27 24 22 23 25 25 26 28 29 31 34 35 33 31 28 25 22 20 18 16 14
0 0 0 0 0 0 0 0 0 0 0 0 1 2 4 7 12 18 24 29 28 26 25 24 22 20 21 22 23 25 27 27 27 29 31 29 28 26 23 18 16 14 13 12
0 0 0 0 0 0 0 0 0 1 1 1 2 4 7 11 16 21 25 27 26 24 24 23 21 19 19 19 20 21 24 25 24 26 28 27 25 23 20 17 15 14 15 16
0 0 0 0 0 0 0 0 0 1 2 3 4 7 11 17 20 22 23 23 21 20 23 24 22 19 17 17 18 19 21 21 21 23 25 24 23 21 19 18 17 17 19 21
0 0 0 0 0 0 0 0 0 2 3 4 6 10 16 21 23 21 18 17 17 17 20 22 20 17 16 16 17 19 19 18 18 20 21 20 18 18 18 18 18 18 19 19
0 0 0 0 0 0 0 0 0 1 3 5 8 12 16 19 19 16 13 12 13 15 18 20 19 16 15 16 17 17 17 16 16 18 19 18 15 14 15 16 17 17 16 15
0 0 0 0 0 0 0 0 0 1 2 4 7 11 12 12 12 12 11 10 11 13 16 20 20 18 16 16 17 17 15 14 14 16 18 18 16 14 13 14 15 15 14 12
0 0 0 0 0 0 0 0 0 0 1 4 6 7 8 9 11 13 12 11 11 11 14 18 20 18 17 16 17 16 15 12 12 14 16 16 15 13 14 15 15 14 13 11
0 0 0 0 0 0 0 0 0 0 2 4 4 4 5 9 13 14 14 12 10 10 11 13 16 17 16 16 16 15 14 13 12 13 14 13 11 11 14 16 15 13 13 12
0 0 0 0 0 1 0 0 0 0 1 2 2 3 4 6 9 11 11 10 8 7 7 7 10 14 15 15 14 13 13 12 11 12 12 11 10 10 12 14 13 12 12 12
0 0 0 0 0 0 0 0 0 0 0 0 1 2 2 3 4 6 6 6 5 5 5 5 7 11 13 12 11 11 9 9 8 9 9 9 9 9 9 9 9 9 9 9
0 0 0 0 0 0 0 0 0 0 0 0 1 1 2 2 2 3 4 4 4 4 4 4 6 9 10 9 8 8 6 6 6 7 7 8 8 7 7 7 7 7 6 5
Wind_Speed
2 2 4 8 8 8 6 5 5 7 4 2 3 5 9 9 8 8 9 10 10 11 9 10 12 12 10 9 8 8 7 6 5 3 3 3 3 3 3 4 6 6 6 6
2 5 10 8 7 5 5 5 5 6 2 1 2 3 6 10 11 11 11 10 12 10 9 10 10 11 11 11 10 8 8 7 6 4 3 3 3 3 3 4 5 6 6 6
7 9 6 6 7 6 6 5 5 3 3 2 3 2 2 4 6 7 9 10 11 13 14 13 12 11 11 11 11 10 8 7 6 5 3 2 2 2 2 3 3 5 6 6
6 8 5 5 7 6 7 7 5 4 1 3 2 1 5 4 5 8 10 10 11 12 11 12 13 12 12 12 10 9 8 7 6 6 5 5 5 4 4 4 3 4 5 6
6 4 5 7 9 6 8 6 4 3 2 1 1 3 5 1 5 9 10 11 11 12 13 13 14 13 12 11 10 9 8 7 6 6 6 5 4 4 3 3 4 4 4 5
7 6 4 7 7 4 3 3 5 5 5 1 4 4 4 4 8 8 9 10 10 10 12 11 11 10 9 9 8 8 8 8 7 7 6 6 6 5 4 4 4 4 3 4
7 7 4 2 3 6 2 6 4 5 4 5 3 3 6 7 6 8 9 10 9 7 9 10 10 10 10 10 10 9 9 8 8 8 7 6 6 6 6 5 5 4 4 4
2 7 5 2 4 4 2 9 7 4 4 4 3 1 5 3 3 4 6 7 7 6 7 9 10 11 11 11 10 10 10 9 9 9 8 6 6 5 4 4 4 4 4 5
3 6 6 4 2 4 2 2 8 7 2 0 2 3 4 2 2 3 3 4 5 7 7 9 10 10 9 10 9 10 10 9 9 9 8 6 6 5 5 5 4 3 3 4
5 3 6 5 4 2 5 5 5 5 3 1 3 3 3 2 2 2 3 4 4 5 6 7 8 8 7 7 7 7 7 8 8 8 8 7 7 6 5 5 5 4 4 4
4 2 6 5 1 2 2 2 4 4 5 6 3 5 4 7 6 5 4 5 6 6 6 7 6 6 6 6 6 6 6 6 6 7 7 6 6 6 5 5 5 5 4 4
2 5 2 6 6 2 3 3 5 4 2 4 4 6 3 4 3 3 3 4 4 5 6 7 7 6 5 5 6 6 5 5 6 7 6 6 5 5 5 6 6 5 5 5
3 6 2 8 9 7 3 2 2 4 4 3 4 5 1 2 3 3 4 4 5 4 5 5 6 6 6 5 5 5 5 5 5 5 5 5 5 6 6 6 6 5 5 4
5 5 6 6 6 4 4 6 2 3 3 3 5 4 2 0 3 2 4 4 4 4 5 5 5 5 5 5 5 5 4 5 4 5 5 5 5 5 6 6 5 5 5 4
6 3 2 3 3 2 3 5 5 1 5 6 5 5 5 4 4 4 4 6 5 4 4 4 4 4 3 3 3 3 3 4 4 5 5 5 4 3 3 4 4 4 5 5
4 3 2 3 3 4 4 6 4 3 1 3 5 2 3 2 4 5 5 6 6 4 4 3 3 4 4 3 2 2 3 3 4 5 5 4 4 4 3 3 3 3 4 4
1 3 3 2 4 4 4 3 1 2 2 3 3 4 3 4 5 6 5 5 5 4 3 3 3 3 3 3 2 2 2 2 3 4 3 3 3 3 4 4 3 3 3 3
5 3 3 1 3 2 6 2 4 5 4 3 3 2 3 5 4 4 5 6 5 4 4 3 2 2 2 2 2 1 2 2 3 3 2 3 4 4 3 3 3 3 2 3
6 7 4 3 2 4 4 3 1 3 3 4 4 4 3 5 6 3 1 3 5 5 4 4 3 2 2 2 2 1 1 1 2 2 2 3 3 3 3 3 3 2 2 2
4 5 5 3 3 4 4 5 1 6 2 4 4 3 2 3 3 2 2 1 2 3 3 3 3 2 2 1 2 2 1 1 1 2 2 3 3 3 3 3 3 2 2 3
3 3 3 4 3 5 4 5 4 3 4 1 2 2 2 0 3 3 1 1 2 2 3 3 3 3 3 2 2 2 0 2 2 1 1 1 2 3 3 2 2 2 2 2
3 2 2 3 3 6 4 4 3 4 2 1 1 2 2 0 1 1 1 2 2 1 2 2 2 2 2 2 2 1 2 2 1 1 1 1 1 1 1 1 1 2 2 3
1 4 4 4 5 4 1 2 2 4 3 1 1 1 2 1 1 1 1 1 1 1 1 1 2 1 1 1 2 2 3 1 1 1 1 1 0 0 1 2 2 1 2 2
3 1 3 2 1 1 1 2 2 3 2 1 1 1 1 1 1 1 0 0 1 0 1 1 2 1 1 1 1 2 2 1 2 1 1 0 0 0 0 1 2 2 2 2
3 1 2 0 2 2 2 1 2 2 3 3 2 2 2 2 1 2 1 1 1 1 1 1 2 2 2 2 2 2 2 1 2 1 1 1 1 2 1 1 1 2 2 2
3 3 4 5 6 3 4 2 1 2 1 1 2 1 1 2 2 1 1 1 1 1 1 1 1 2 2 1 1 2 1 2 2 1 1 1 1 1 1 1 0 2 1 0
Wind_Direction
245 110 229 232 219 214 230 244 263 276 266 110 163 164 174 177 172 168 161 165 174 180 177 170 165 164 164 166 167 169 168 174 166 158 164 167 174 170 169 176 172 174 175 173
360 246 232 231 241 239 241 248 266 287 291 148 169 188 182 174 183 182 173 177 179 173 171 175 169 167 171 172 173 173 175 174 174 175 175 170 161 165 169 173 176 180 177 175
215 240 234 232 245 244 250 218 222 241 328 11 92 13 195 193 188 186 183 185 184 181 178 176 176 175 175 176 175 177 178 175 176 171 152 142 122 118 147 167 182 188 182 181
243 247 250 248 251 236 255 238 209 209 171 267 138 203 262 209 197 194 193 190 189 187 179 178 176 176 179 180 176 174 173 171 174 171 165 163 168 177 190 185 188 192 188 187
254 242 237 248 248 229 232 230 203 191 163 356 343 137 269 195 207 213 201 194 188 188 184 183 182 180 180 176 175 175 171 172 175 176 176 175 178 181 176 174 183 194 196 196
255 259 223 232 252 245 233 42 19 43 69 326 246 162 257 230 205 202 200 197 193 193 186 184 181 174 175 174 173 176 175 179 180 178 178 179 179 179 177 185 191 199 201 204
304 294 275 261 312 321 53 82 29 357 8 258 258 141 235 241 200 180 183 188 185 182 179 174 172 174 177 178 179 180 180 182 183 183 185 186 186 182 188 189 192 193 198 206
297 296 286 256 194 220 217 138 155 198 221 269 334 203 262 243 181 162 167 166 164 162 168 171 174 179 179 179 181 182 186 188 186 186 191 191 186 184 193 191 186 195 204 208
193 263 289 291 253 163 171 175 172 148 173 282 292 282 312 34 88 106 127 139 148 157 165 169 169 174 178 181 185 184 186 189 191 191 190 193 192 190 194 193 189 195 204 207
167 254 292 305 359 344 167 162 92 108 138 214 282 261 228 246 195 161 158 162 165 160 159 160 165 170 172 174 178 180 181 191 194 193 194 195 198 200 197 189 194 199 204 205
129 155 309 355 12 277 4 68 101 116 147 155 210 266 230 197 192 173 173 163 163 155 161 157 157 162 162 155 161 173 181 186 194 195 194 196 196 199 196 197 200 199 202 202
137 123 269 274 270 249 151 156 131 140 227 160 161 256 281 172 160 140 135 138 140 150 158 154 151 149 152 165 172 169 170 179 191 192 191 198 196 192 199 209 209 201 202 206
113 104 43 338 343 357 26 34 112 132 125 149 158 245 324 95 90 101 120 123 127 133 130 142 145 152 159 170 173 170 178 182 180 176 185 194 196 197 206 212 212 208 207 207
97 105 152 193 232 280 321 324 340 105 140 195 202 197 280 201 108 83 112 117 111 120 121 128 138 150 158 170 175 174 181 182 175 171 177 189 200 207 211 212 210 211 207 202
82 105 156 216 251 308 312 311 319 266 194 184 205 185 215 197 165 148 135 120 109 112 121 127 136 139 140 144 155 164 171 178 175 175 184 195 199 203 217 213 211 208 204 203
60 103 57 348 337 352 331 322 338 358 55 135 133 202 229 152 106 102 114 121 120 119 118 123 130 133 132 140 154 159 167 176 173 179 192 195 189 190 204 216 213 209 206 203
63 98 75 297 314 13 320 310 51 44 25 135 173 214 163 119 126 134 134 128 141 149 142 135 134 139 145 162 156 158 173 162 162 174 184 181 175 186 198 200 188 203 206 199
145 115 125 134 27 244 246 290 88 69 31 50 99 134 140 142 142 129 136 136 145 152 151 143 136 129 145 153 155 165 160 157 155 161 177 191 189 193 202 196 198 205 200 199
156 142 130 127 185 268 296 322 104 102 9 16 85 84 78 105 78 48 70 133 158 169 164 159 156 148 148 149 151 138 135 142 143 168 184 205 206 197 199 204 213 211 190 207
68 109 126 144 170 223 250 302 320 95 41 5 67 84 70 60 85 267 295 30 141 147 154 158 150 135 148 183 154 137 141 158 214 226 208 204 206 197 202 208 208 205 190 205
23 47 132 168 198 247 266 319 25 111 214 307 77 107 80 53 213 235 276 39 122 140 154 157 149 159 189 192 142 136 158 226 234 227 190 189 197 202 204 203 193 175 176 173
177 160 191 158 187 245 302 28 117 192 204 122 92 95 88 115 68 51 48 55 86 100 126 136 152 189 204 177 151 157 240 244 219 164 156 162 178 204 189 171 181 164 169 174
170 190 182 177 206 252 336 109 178 157 128 127 107 84 107 110 89 56 37 36 56 104 174 180 170 192 237 197 156 202 253 253 180 149 178 233 271 199 180 165 164 165 176 187
319 49 93 72 285 261 69 84 74 96 114 146 141 108 100 136 132 120 131 330 314 246 214 176 152 166 252 274 243 223 236 214 169 179 199 194 146 117 181 159 154 163 189 206
275 19 76 107 252 0 338 179 139 94 73 60 61 72 111 129 178 185 189 216 213 214 220 158 154 184 226 244 249 247 232 176 171 185 194 194 189 178 157 141 160 172 181 197
255 192 174 221 230 191 243 254 142 113 112 120 107 77 102 151 184 172 185 219 201 187 207 181 182 194 224 234 256 261 237 186 180 190 202 203 188 174 164 163 71 50 90 6